Simultaneous Nadir Overpasses (SNOs) Predictions

Prediction of SNOs between NOAA-20 and METOP-C Satellite Orbit:

Table of predicted SNOs for the next 14.0 days since TLE Epoch: 11/13/2022
Index Date (NOAA-20) Time (NOAA-20) Lat,Lon (NOAA-20) SZA (NOAA-20 ) Date (METOP-C) Time (METOP-C) Lat,Lon (METOP-C) SZA (METOP-C ) Distance(km) Time Diff (sec)
1 11/26/2022 19:27:04 -73.45, 58.51 85.50 11/26/2022 19:28:11 -73.39, 61.28 85.64 88.26 67
2 11/26/2022 20:17:45 73.22,-133.68 94.27 11/26/2022 20:18:54 73.21,-131.78 94.20 60.85 69
3 11/26/2022 21:08:28 -73.16, 33.78 85.80 11/26/2022 21:09:38 -73.12, 35.34 85.89 50.38 70
4 11/26/2022 21:59:09 72.93,-158.41 93.97 11/26/2022 22:00:22 72.88,-157.82 93.90 20.01 73
5 11/26/2022 22:49:52 -72.86, 9.04 86.10 11/26/2022 22:51:06 -72.79, 9.31 86.18 11.84 74
6 11/26/2022 23:40:35 72.73, 176.62 93.78 11/26/2022 23:41:46 72.76, 176.58 93.80 3.37 71
7 11/27/2022 00:31:20 -72.77, -16.14 86.18 11/27/2022 00:32:28 -72.77, -16.07 86.19 2.21 68
8 11/27/2022 01:22:05 72.74, 151.23 93.80 11/27/2022 01:23:08 72.74, 151.20 93.79 0.92 63
9 11/27/2022 02:12:49 -72.73, -41.42 86.21 11/27/2022 02:13:50 -72.75, -41.46 86.20 2.76 61
10 11/27/2022 03:03:35 72.75, 125.84 93.82 11/27/2022 03:04:30 72.72, 125.82 93.79 3.35 55



Historial Predications of SNOs between NOAA-20 and METOP-C
